Location: ???????
(60.3899°N, 46.4370°E)
Time: 13:36:04
(UTC+00:00)

Daily predictions for brighter satellites

Satellite Brightness Start Highest point End
(mag) Time Altitude Azimuth Time Altitude Azimuth Time Altitude Azimuth
Meteor 2-3 Rocket 4.1 12:49:58 10° NNW 12:55:48 75° WSW 13:01:36 10° S
Cosmos 2285 Rocket 4.5 12:49:46 10° NNW 12:55:51 41° NE 13:01:52 10° ESE
CZ-4 R/B 3.2 12:54:45 10° ENE 12:56:32 13° NE 12:58:20 10° NNE
NOSS 3-3 (A) 4.4 12:50:40 10° W 12:57:11 70° N 13:04:45 10° E
NOSS 3-3 (C) 4.4 12:50:46 10° W 12:57:17 70° N 13:04:51 10° E
Cosmos 2237 4.4 12:51:48 10° SSW 12:57:24 62° ESE 13:03:03 10° NE
Cosmos 2074 Rocket 4.0 12:52:14 10° N 12:58:26 64° ENE 13:04:38 10° SSE
Cosmos 2298 Rocket 4.0 12:53:17 10° NNW 12:58:38 81° NE 13:03:58 10° SE
Cosmos 2150 Rocket 4.0 12:54:29 10° NNW 12:59:42 78° NE 13:04:52 10° SE
Cosmos 1943 Rocket 2.7 12:55:07 10° NW 13:00:19 39° NNE 13:05:32 10° E
Cosmos 2297 3.9 12:56:33 10° NW 13:02:05 50° NE 13:07:37 10° ESE
Cosmos 1869 4.1 12:58:39 10° SSE 13:02:20 34° E 13:06:05 10° NNE
Cosmos 1818 4.1 12:57:27 10° WNW 13:02:54 67° SW 13:08:20 10° SE
H-2A R/B 3.5 13:00:36 10° NE 13:03:26 18° E 13:06:16 10° SE
NOAA 6 4.0 13:00:44 10° SE 13:05:50 65° ENE 13:10:57 10° NNW
YAOGAN 6 3.0 13:02:38 10° SE 13:06:06 42° ENE 13:09:32 10° N
Cosmos 1939 Rocket 4.1 13:03:59 10° E 13:06:49 19° NE 13:09:40 10° N
Aureole 2 Rocket 3.6 13:04:54 10° NW 13:07:26 37° WSW 13:10:03 10° S
Cosmos 405 4.2 13:05:34 10° SSE 13:08:25 23° E 13:11:15 10° NE
H-2A R/B 2.7 13:06:54 10° SSE 13:10:44 73° ENE 13:14:39 10° NNW
Cosmos 2184 Rocket 4.0 13:05:27 10° NNW 13:11:53 73° ENE 13:18:15 10° SSE
Cosmos 1125 Rocket 3.5 13:06:45 10° NNW 13:11:59 73° NE 13:17:12 10° SE
Cosmos 1633 Rocket 4.2 13:08:56 10° N 13:12:26 22° NE 13:15:54 10° ESE
CZ-2C R/B 4.1 13:09:46 10° E 13:13:22 21° NE 13:16:54 10° N
USA 267 3.7 13:06:55 10° ESE 13:13:26 66° S 13:19:58 10° W
S3M 4.4 13:07:32 10° SSW 13:13:51 71° WNW 13:20:16 10° NNE
Cosmos 405 Rocket 2.8 13:10:22 10° NNW 13:14:12 59° ENE 13:18:05 10° SSE
Cosmos 2322 Rocket 2.3 13:08:53 10° SW 13:14:36 84° NW 13:20:20 10° NE
Spot 2 4.4 13:10:10 10° SSE 13:14:52 86° ENE 13:19:53 10° NNW
Cosmos-2242 3.1 13:10:33 10° SSW 13:14:56 86° W 13:19:24 10° NNE
Cosmos 921 Rocket 3.1 13:14:00 10° SSW 13:18:32 84° ESE 13:23:05 10° NNE
Radarsat Rocket 4.2 13:16:44 10° SSE 13:22:56 82° ENE 13:29:58 10° NNW
Cosmos 1356 4.1 13:22:56 10° N 13:26:03 31° ENE 13:29:09 10° SE
Cosmos 540 Rocket 3.8 13:22:07 10° S 13:27:00 47° ESE 13:31:55 10° NE
Cosmos 468 Rocket 4.0 13:22:04 10° SSW 13:27:12 78° ESE 13:32:22 10° NE
SMAP 3.1 13:23:47 10° SE 13:28:22 60° ENE 13:32:59 10° NNW
PAYLOAD B 4.3 13:23:22 10° SSE 13:28:58 85° ENE 13:34:35 10° NNW
Cosmos 2221 2.9 13:26:09 10° SSE 13:30:15 42° E 13:34:20 10° NNE
Cosmos 1697 Rocket 3.8 13:26:47 10° W 13:31:53 33° NNW 13:36:42 11° NE
Cosmos 1500 Rocket 3.5 13:27:31 10° NNW 13:31:56 81° ENE 13:36:21 10° SSE
CZ-4B DEB 4.4 13:27:15 10° SSE 13:32:45 82° WSW 13:38:16 10° NNW
Cosmos 44 Rocket 3.7 13:28:39 10° WNW 13:33:35 51° N 13:38:03 13° E
Cosmos 1633 4.4 13:30:54 10° NNW 13:34:10 33° W 13:37:25 10° SSW
Cosmos 2333 Rocket 2.5 13:29:41 10° SSW 13:35:10 51° ESE 13:40:13 12° NE
Cosmos 2278 Rocket 2.9 13:32:39 10° NW 13:38:14 59° WSW 13:43:48 10° SSE
Meteor 1-28 Rocket 4.3 13:36:59 10° N 13:40:37 44° WNW 13:44:14 10° SW
COSMOS 2428 3.1 13:35:29 10° S 13:40:57 47° ESE 13:45:46 13° NE
SeaSat 1 3.9 13:37:46 12° NE 13:41:05 23° N 13:44:54 10° NW
IRS-1C Rocket 4.5 13:37:19 10° SE 13:42:14 41° NE 13:47:11 10° NNW
Cosmos 841 Rocket 3.6 13:37:27 10° SSW 13:42:34 58° ESE 13:47:23 12° NE
DNEPR-1 R/B 4.5 13:35:51 10° SW 13:42:50 79° SE 13:47:36 15° ENE
Cosmos 1606 4.1 13:40:00 10° SE 13:42:50 20° E 13:44:07 17° ENE
USA 281 3.3 13:36:52 10° ESE 13:43:17 58° NE 13:49:43 10° NNW
Cosmos 1455 4.4 13:41:11 10° WSW 13:44:17 22° WNW 13:47:24 10° N
PSLV R/B 4.4 13:40:15 10° S 13:44:21 64° WSW 13:48:25 10° NNW
Meteor 1-27 4.2 13:39:33 10° SSW 13:45:12 85° ESE 13:51:00 10° NNE
Envisat 3.3 13:43:39 10° S 13:48:44 73° WSW 13:53:52 10° NNW
Cosmos 1470 Rocket 4.5 13:45:08 10° N 13:48:50 26° ENE 13:52:29 10° ESE
H-2A R/B 2.8 13:45:23 10° S 13:49:39 69° WSW 13:53:47 10° NNW
Cosmos 2218 Rocket 4.2 13:45:31 10° N 13:51:24 44° ENE 13:57:15 10° SE
NOAA 12 4.1 13:46:29 10° SSE 13:51:50 85° ENE 13:57:12 10° NNW
Feng Yun 1-1 Rocket 4.3 13:46:48 10° SE 13:52:25 57° ENE 13:57:54 10° NNW
YAOGAN 1 3.5 13:48:49 10° ESE 13:52:25 26° NE 13:56:03 10° N
SL-08 R/B 3.8 13:48:48 10° NNE 13:53:44 65° WNW 13:58:34 10° SSW
Cosmos 1743 Rocket 4.0 13:50:07 10° NNW 13:54:36 69° W 13:59:02 10° S
Cosmos 2360 Rocket 2.3 13:49:12 10° SW 13:54:51 77° NW 13:59:52 13° NE
COSMO-SKYMED 1 4.0 13:56:00 17° E 13:56:00 17° E 13:58:47 10° SE
Meteor 1-25 Rocket 4.3 13:52:20 10° NNW 13:57:48 51° ENE 14:03:16 10° SE
ERS-2 3.6 13:59:26 19° E 13:59:26 19° E 14:01:46 10° SE
Cosmos 2366 rocket 4.2 13:55:15 10° N 14:01:18 48° ENE 14:07:15 10° SE
Sich 1 3.0 13:56:56 10° N 14:01:22 69° ENE 14:05:45 10° SSE
Cosmos 2219 Rocket 2.2 13:56:56 10° SSW 14:02:32 67° ESE 14:07:01 16° NE
ADEOS Rocket 3.6 13:55:42 10° NNE 14:03:15 77° ESE 14:11:04 10° SSW
Helios 1A Rocket 3.5 14:00:53 10° ESE 14:04:30 33° ENE 14:08:08 10° N
Cosmos 1862 3.9 14:01:23 10° NNW 14:05:24 61° W 14:09:23 10° S
GEOS 3 Rocket 3.9 14:02:07 18° ENE 14:06:07 64° NNW 14:11:27 10° W
H-2A R/B 2.7 14:01:36 10° ESE 14:06:13 32° NE 14:10:45 10° N
Cosmos 44 3.7 14:01:38 10° WNW 14:06:47 74° SW 14:12:08 10° SE
Cosmos 1656 Rocket 4.1 14:01:59 10° NW 14:07:25 42° NNE 14:11:04 19° E
Cosmos 1980 Rocket 3.3 14:03:21 10° W 14:08:22 32° NNW 14:12:15 15° NE
Cosmos 1814 Rocket 4.0 14:03:52 10° SSW 14:09:10 69° ESE 14:13:28 16° NE
Okean-O 3.1 14:05:07 10° SE 14:09:13 38° ENE 14:13:20 10° N
CZ-4B R/B 3.4 14:05:04 10° S 14:10:23 71° WSW 14:15:43 10° NNW
Cosmos 1602 4.4 14:06:51 10° N 14:10:27 32° ENE 14:13:33 13° SE
Nadezhda 1 Rocket 4.0 14:04:46 10° S 14:11:03 67° E 14:17:26 10° NNE
SL-16 R/B 3.0 14:06:25 10° WSW 14:11:53 46° NNW 14:16:22 15° NE
Cosmos 2237 Rocket 2.8 14:08:28 10° S 14:13:35 37° ESE 14:16:30 22° ENE
Cosmos 1805 Rocket 3.7 14:10:02 10° NNW 14:14:31 79° WSW 14:18:59 10° S
Cosmos 1842 Rocket 3.6 14:10:49 10° SSW 14:15:10 82° WNW 14:19:33 10° NNE
NOAA 11 4.1 14:10:44 10° SSE 14:16:11 88° ENE 14:21:41 10° NNW
AQUARIUS 4.5 14:12:08 10° S 14:16:37 71° WSW 14:21:09 10° NNW
CZ-2D R/B 3.4 14:14:17 10° SE 14:17:57 46° ENE 14:21:41 10° N
Cosmos 2154 Rocket 4.4 14:11:58 10° NNW 14:18:16 70° W 14:24:34 10° S
Okean O Rocket 2.0 14:14:32 10° S 14:18:53 66° WSW 14:23:17 10° NNW
Cosmos 962 Rocket 4.5 14:12:58 10° NNW 14:19:21 86° ENE 14:25:38 10° SSE
Cosmos 2369 Rocket 2.3 14:13:40 10° NW 14:19:21 60° NE 14:24:09 14° ESE
Cosmos 1933 Rocket 4.2 14:15:31 10° N 14:19:35 33° ENE 14:21:38 22° ESE
Cosmos 1666 Rocket 3.4 14:16:29 10° NNW 14:20:53 70° ENE 14:25:17 10° SSE
Cosmos 1570 Rocket 4.0 14:15:59 10° SSW 14:21:18 88° ESE 14:25:31 16° NNE
SL-16 R/B 4.2 14:16:29 10° NNE 14:21:41 28° NW 14:26:51 10° W
FengYun 1-2 T 4.3 14:18:27 10° SSE 14:24:01 80° WSW 14:29:34 10° NNW
Cosmos 1151 Rocket 4.2 14:20:32 10° SE 14:23:04 23° ESE 14:23:04 23° ESE
Cosmos 2322 3.7 14:18:57 10° SW 14:24:39 83° NW 14:28:54 19° NE
NOSS 0 Rocket 4.2 14:19:08 10° SSW 14:25:07 51° ESE 14:28:54 23° NE
Cosmos 371 Rocket 4.3 14:21:16 10° NNW 14:25:30 28° NNE 14:26:32 26° NE
CSL-04 Rocket 4.0 14:21:26 12° ESE 14:25:58 40° NE 14:30:53 10° NNW
CZ-4C R/B 3.1 14:22:54 14° NNE 14:26:00 83° WNW 14:29:39 10° SSW
Cosmos 2084 Rocket 3.3 14:22:59 10° WSW 14:27:10 85° SSE 14:29:03 33° ENE
Landsat 5 3.5 14:24:08 10° NNE 14:28:28 89° W 14:32:55 10° SSW
Cosmos 2341 Rocket 4.0 14:22:18 10° NNW 14:28:37 89° ENE 14:34:57 10° SSE
CZ-4 R/B 1.5 14:26:53 10° SE 14:30:42 47° ENE 14:34:37 10° N
Cosmos 1763 Rocket 4.1 14:25:54 10° SW 14:30:52 52° NW 14:34:55 15° NNE
Cosmos 1980 4.0 14:26:25 10° S 14:31:52 48° ESE 14:34:43 26° ENE
Ariane Rocket 4.1 14:33:08 24° NE 14:33:08 24° NE 14:37:02 10° N
Cosmos 1607 4.0 14:29:56 10° WSW 14:36:21 89° NW 14:40:15 26° ENE
H-2A R/B 1.9 14:36:38 15° NNE 14:40:01 90° SSE 14:44:13 10° SSW
Cosmos 1939 Rocket 2.7 14:37:23 10° SSE 14:41:17 87° WSW 14:45:15 10° NNW
Meteor 1-11 Rocket 4.4 14:37:16 10° N 14:42:23 33° NE 14:43:17 31° ENE
Cosmos 405 3.9 14:39:28 10° SW 14:42:51 46° WNW 14:45:30 15° N
Cosmos 2285 Rocket 4.1 14:36:48 10° NW 14:43:16 79° WSW 14:49:38 10° SSE
Cosmos 389 Rocket 2.7 14:40:35 10° S 14:43:31 47° SE 14:43:31 47° SE
SKYMED 2 4.1 14:44:39 37° ESE 14:44:39 37° ESE 14:48:30 10° SSE
Cosmos 1943 Rocket 2.1 14:39:03 10° NW 14:44:37 85° SW 14:50:12 10° SE
Cosmos 2297 4.2 14:40:53 10° NW 14:46:29 61° WSW 14:52:05 10° SSE
Cosmos 2333 4.5 14:42:10 10° SW 14:47:48 65° NW 14:51:24 23° NE
NOSS 3-3 (A) 4.3 14:41:48 10° WNW 14:48:42 83° NNE 14:53:31 26° ESE
NOSS 3-3 (C) 4.3 14:41:54 10° WNW 14:48:48 83° NNE 14:53:35 26° ESE
Cosmos 864 Rocket 4.4 14:42:47 10° NNW 14:49:11 80° ENE 14:55:30 10° SSE
SL-8 Rocket 4.0 14:43:20 10° NNW 14:49:35 87° W 14:55:51 10° S
Cosmos 1633 Rocket 3.1 14:46:23 10° NNW 14:50:49 82° WSW 14:55:11 10° S
NOAA 15 4.5 14:46:05 10° SSE 14:51:21 70° ENE 14:56:37 10° NNW
CZ-2C R/B 2.8 14:47:39 10° SSE 14:52:39 73° ENE 14:57:29 10° NNW
CSL-04 DEB 4.3 14:50:30 26° NNE 14:52:47 87° ESE 14:56:56 10° SSW
ISS -1.3 14:53:38 10° SSW 14:55:02 14° SSE 14:55:02 14° SSE
USA 267 4.2 14:50:59 10° SE 14:57:10 43° SSW 15:03:22 10° WNW
Cosmos 2056 Rocket 4.1 14:52:45 10° NNW 14:57:35 36° NE 14:58:02 36° NE
Meteor 1-14 Rocket 4.2 14:51:43 10° NNW 14:57:38 73° ENE 15:03:37 10° SSE
Cosmos 1934 Rocket 4.5 14:52:37 10° N 14:58:35 39° ENE 14:59:47 36° E
ARGOS 3.2 14:56:43 29° ESE 14:59:15 53° ENE 15:04:31 10° NNW
Cosmos 2322 Rocket 3.3 14:54:07 10° W 14:59:22 37° NNW 15:02:27 22° NNE
CZ-4B R/B 2.6 15:01:17 28° S 15:01:17 28° S 15:02:54 10° S
SL-16 R/B 2.8 14:57:06 10° S 15:01:49 34° ESE 15:01:49 34° ESE
Cosmos 1821 Rocket 4.0 14:57:25 10° N 15:03:31 56° ENE 15:08:47 14° SE
SL-24 DEB 4.3 14:59:12 10° N 15:03:55 55° E 15:08:35 10° SSE
Cosmos 2181 Rocket 3.9 15:00:26 10° S 15:06:47 67° E 15:13:06 10° NNE
Resurs 01 Rocket 3.9 15:09:32 12° N 15:09:32 12° N 15:09:57 10° N
Cosmos 2208 Rocket 4.4 15:02:07 10° SW 15:07:24 62° NW 15:10:44 23° NNE
Cosmos 2221 4.0 15:03:53 10° SW 15:07:54 36° WNW 15:11:56 10° N
Cosmos 540 Rocket 4.2 15:03:42 10° WSW 15:08:41 49° NW 15:11:47 22° NNE
Cosmos 2263 4.1 15:03:48 10° NW 15:09:29 81° NE 15:11:58 35° SE
Meteor 1-26 Rocket 4.4 15:08:20 10° S 15:14:10 55° E 15:17:22 27° NNE
Cosmos 44 Rocket 3.3 15:10:29 10° WNW 15:15:37 82° NNE 15:16:46 55° ESE
Cosmos 1624 Rocket 4.4 15:10:45 10° NNW 15:15:53 44° NE 15:15:56 44° NE
Cosmos 1933 3.4 15:12:36 10° S 15:16:05 62° SSE 15:16:05 62° SSE
Cosmos 1697 Rocket 3.8 15:12:27 10° NW 15:17:23 29° N 15:18:26 28° NNE
SeaSat 1 3.5 15:17:33 29° NNE 15:17:36 29° NNE 15:21:50 10° NW
Cosmos 1606 2.9 15:14:15 10° SSW 15:18:09 70° WNW 15:19:09 46° N
Cosmos 2333 Rocket 2.7 15:13:54 10° WSW 15:19:30 56° NW 15:22:14 30° NNE
SL-08 R/B 4.4 15:14:46 10° NNW 15:21:01 87° ENE 15:27:10 10° SSE
Cosmos 841 Rocket 4.5 15:19:42 10° WSW 15:24:41 43° NW 15:27:28 24° NNE
COSMOS 2428 3.1 15:19:30 10° WSW 15:25:12 61° NW 15:27:47 32° NNE
Cosmos 1470 Rocket 3.8 15:22:46 10° NNW 15:27:06 65° W 15:31:23 10° S
USA 281 3.8 15:21:29 10° SSE 15:27:54 56° WSW 15:34:24 10° NW
YAOGAN 1 2.8 15:24:33 14° S 15:28:13 71° WSW 15:32:34 10° NNW
DNEPR-1 R/B 4.5 15:24:10 10° W 15:30:37 61° NNW 15:31:55 48° NE
COSMO-SKYMED 1 2.6 15:33:14 68° S 15:33:14 68° S 15:37:03 10° SSW
ERS-2 3.0 15:34:02 46° SW 15:34:02 46° SW 15:36:43 10° SSW
EO 1 Delta rocket 4.0 15:32:33 24° NNE 15:35:39 82° ESE 15:41:41 10° S
Helios 1A Rocket 3.8 15:35:41 10° S 15:39:35 47° W 15:43:31 10° NNW
Cosmos 2360 Rocket 3.4 15:34:29 10° W 15:39:38 35° NNW 15:41:37 27° NNE
Meteor 1-5 Rocket 4.2 15:36:15 10° NNW 15:42:18 89° ENE 15:45:05 34° SSE
CSL-04 Debris 4.3 15:38:41 14° SSE 15:43:31 75° WSW 15:49:03 10° NNW
GEOS 3 Rocket 3.9 15:43:13 52° NNE 15:43:49 55° N 15:49:06 10° WNW
MOS 1 4.5 15:45:06 53° NNE 15:45:06 53° NNE 15:49:57 10° NNW
H-2A R/B 2.2 15:40:38 13° S 15:45:23 71° WSW 15:50:33 10° NNW
Okean-O 3.6 15:41:25 10° S 15:45:41 46° W 15:49:59 10° NNW
Cosmos 2219 Rocket 3.0 15:41:21 10° WSW 15:46:49 47° NNW 15:48:44 34° NNE
Cosmos 1605 Rocket 4.4 15:43:34 10° N 15:48:15 43° NNE 15:48:15 43° NNE
Cosmos 1656 Rocket 3.7 15:45:47 10° NW 15:51:30 78° SW 15:52:27 61° SSE
Cosmos 1932 4.4 15:45:57 10° SW 15:52:28 74° SE 15:53:06 68° E
Cosmos 1980 Rocket 3.4 15:49:01 10° NW 15:53:53 29° N 15:54:00 29° N
Cosmos 724 4.4 15:48:50 10° WSW 15:54:50 73° NNW 15:55:51 60° NNE
SL-16 R/B 3.5 15:52:19 10° WNW 15:57:16 29° N 15:58:13 28° N
Cosmos 2237 Rocket 2.3 15:51:45 10° SW 15:57:23 71° NW 15:58:21 59° N
Cosmos 1933 Rocket 4.3 15:53:19 10° NNW 15:57:40 51° W 15:58:51 39° SW
Cosmos 1151 Rocket 4.1 15:57:07 10° SSW 15:59:58 38° SW 15:59:58 38° SW
USA 215 3.6 16:03:27 46° SSE 16:03:27 46° SSE 16:09:22 10° SW
Cosmos 2369 Rocket 3.1 15:57:54 10° NW 16:03:22 47° WSW 16:06:00 28° S
CZ-4 R/B 3.2 16:02:50 12° SSW 16:05:55 30° W 16:09:32 10° NNW
CSL-04 Rocket 4.1 16:03:05 24° S 16:06:13 57° WSW 16:11:29 10° NNW
Cosmos 371 Rocket 4.1 16:01:42 10° NNW 16:05:11 46° NNW 16:05:11 46° NNW
Cosmos 1535 Rocket 4.3 16:02:34 10° NNW 16:08:18 74° NNE 16:08:18 74° NNE
Ariane Rocket 3.9 16:13:20 40° NNW 16:13:20 40° NNW 16:16:32 10° NNW
NOSS 0 Rocket 4.3 16:05:24 10° WSW 16:11:36 62° NW 16:12:54 51° NNE
H-2A R/B 4.3 16:13:44 16° NNW 16:15:33 21° NW 16:18:41 10° W
Cosmos 1980 4.1 16:10:20 10° WSW 16:15:58 58° NW 16:16:34 55° NNW
Cosmos 1607 4.3 16:17:46 10° W 16:24:08 59° N 16:24:22 59° N
Meteor 1-11 Rocket 4.0 16:20:40 10° NNW 16:25:48 68° WNW 16:25:48 68° WNW
Cosmos 1943 Rocket 4.2 16:23:21 10° NW 16:27:44 25° WSW 16:32:08 10° SSW
ARGOS 4.2 16:38:14 35° SW 16:39:43 42° W 16:44:52 10° NNW
Resurs 01 Rocket 4.4 16:47:06 11° NNW 16:47:06 11° NNW 16:47:16 10° NNW
Cosmos 1934 Rocket 4.3 16:37:57 10° NNW 16:44:16 66° W 16:44:20 66° W
Cosmos 2322 Rocket 3.7 16:39:58 10° WNW 16:44:16 28° N 16:44:16 28° N
SL-16 R/B 3.3 16:40:15 10° SW 16:43:43 39° SW 16:43:43 39° SW
SeaSat 1 4.3 16:57:20 26° NNW 16:57:20 26° NNW 16:59:29 10° NW
Cosmos 1697 Rocket 4.2 16:57:05 10° NW 17:00:09 30° NNW 17:00:09 30° NNW
Cosmos 2333 Rocket 3.7 16:59:50 10° WNW 17:04:14 30° NNW 17:04:14 30° NNW
COSMOS 2428 4.2 17:05:23 10° WNW 17:09:49 31° NNW 17:09:49 31° NNW
Cosmos 2360 Rocket 4.1 17:20:16 10° NW 17:23:23 24° NNW 17:23:23 24° NNW
Cosmos 2219 Rocket 4.1 17:27:08 10° WNW 17:30:28 25° NW 17:30:28 25° NW
Cosmos 1980 Rocket 4.2 17:33:39 10° NW 17:35:46 22° NNW 17:35:46 22° NNW
Cosmos 2237 Rocket 4.1 17:37:13 10° W 17:40:11 26° WNW 17:40:11 26° WNW
SL-16 R/B 4.3 17:37:43 10° NW 17:40:04 22° NNW 17:40:04 22° NNW
CENTAUR R/B 4.4 23:10:43 31° ESE 23:10:43 31° ESE 23:14:44 10° ESE
Cosmos 2227 Rocket 4.3 23:34:46 22° ENE 23:34:46 22° ENE 23:37:28 10° NE
